Temp
66 66 65 64 63 63 62 61 60 60 60 61 61 60 60 63 63 63 63 63 63 61 61 60 60 60 63 59 59 61 61 61 63 63 62 62 62 62 62 61 62 61
66 67 67 65 64 64 61 61 60 61 61 61 61 62 64 63 63 63 63 62 61 60 60 61 61 60 59 59 59 60 59 59 60 65 62 60 60 62 62 62 61 62
65 65 65 65 64 63 62 61 60 60 61 61 64 64 65 64 62 62 61 61 61 61 60 60 59 60 60 60 59 59 58 58 59 60 60 59 60 61 60 61 61 62
65 65 65 64 62 62 61 60 60 60 61 63 62 64 64 65 62 62 61 63 60 61 61 60 59 60 59 59 59 60 59 59 59 58 59 59 60 61 61 61 61 62
66 64 64 63 62 61 60 60 61 60 60 61 62 63 64 62 61 62 61 61 60 61 61 61 61 60 60 59 58 59 61 60 59 57 57 57 59 61 62 61 60 60
63 62 62 62 63 61 61 61 62 61 62 63 63 64 61 61 60 60 61 61 62 62 62 62 61 62 61 60 59 59 60 61 59 57 58 57 58 60 63 59 58 59
62 62 63 63 62 62 61 60 62 63 61 63 61 61 61 61 60 60 60 60 60 62 61 60 60 60 61 60 60 60 60 61 58 57 57 58 58 58 60 59 57 57
61 61 62 62 61 61 62 62 62 61 64 63 63 63 62 61 61 62 60 60 60 59 60 60 60 59 60 60 60 59 61 64 62 59 57 56 56 56 56 58 57 56
62 62 62 62 61 60 61 62 64 63 63 60 61 61 62 62 61 60 59 59 59 58 59 59 58 58 59 59 59 59 59 60 61 59 58 58 57 56 57 55 56 55
63 63 62 61 61 60 60 62 63 63 63 61 62 62 61 62 60 59 59 58 59 58 58 57 58 58 59 59 60 59 59 60 60 60 60 59 58 57 57 56 55 54
62 61 61 60 60 60 60 62 62 61 63 65 61 60 60 60 61 60 58 59 61 59 58 57 58 58 58 59 60 59 59 60 59 59 60 59 59 60 63 57 57 55
60 59 59 59 60 60 61 61 61 61 61 63 61 61 60 60 59 61 61 59 60 59 58 58 58 57 57 57 57 59 59 59 59 58 59 59 58 59 58 57 57 57
59 60 59 60 62 59 60 61 62 62 61 61 62 61 61 60 61 59 62 60 60 60 60 59 58 58 56 56 57 57 57 58 58 58 57 59 58 57 57 58 58 58
59 60 61 59 59 59 60 61 61 59 60 61 61 60 61 62 61 62 62 61 60 60 60 60 58 58 57 57 57 56 57 58 57 58 56 57 58 57 56 56 57 58
59 60 60 62 60 59 61 62 62 62 60 60 61 61 62 60 61 62 62 61 61 60 60 61 59 60 60 59 57 57 56 57 56 57 56 57 57 56 56 55 55 57
59 61 60 60 61 60 59 60 62 60 61 61 61 60 61 62 60 61 60 61 60 60 59 61 61 62 68 70 69 60 56 57 58 57 56 55 57 55 55 56 55 54
59 59 59 61 59 60 59 61 60 60 59 60 60 60 60 64 60 60 60 61 60 60 60 62 63 65 71 68 68 70 61 57 57 57 56 56 55 56 56 57 55 55
60 59 59 59 60 59 58 59 59 60 60 60 60 60 62 63 62 60 60 60 62 59 59 61 60 70 68 68 69 68 69 59 56 58 58 56 55 56 57 55 55 54
59 59 59 58 58 58 58 60 60 61 59 60 59 60 61 61 60 60 59 58 60 61 62 61 61 70 67 69 68 68 67 65 57 58 57 57 55 56 55 54 54 55
59 58 58 58 58 58 60 60 59 60 59 60 60 62 60 61 59 61 60 59 59 59 60 59 59 68 68 68 68 67 67 66 56 57 57 57 55 55 56 54 54 55
60 58 59 58 58 59 60 59 59 59 60 60 59 60 60 59 60 59 60 62 61 60 60 59 61 69 67 68 67 67 66 67 55 58 57 56 56 55 55 55 55 56
60 58 60 59 58 58 59 59 59 59 59 60 60 58 60 59 59 59 60 60 59 59 60 59 59 66 66 67 66 65 68 61 55 56 56 55 55 54 55 54 54 54
60 60 60 59 58 58 58 58 58 59 58 60 59 59 59 58 59 59 60 59 60 61 60 59 59 64 65 65 65 65 65 56 55 55 56 54 54 55 54 56 56 55
61 61 61 61 58 59 60 60 59 59 59 62 59 58 58 59 59 59 59 60 62 61 60 60 61 64 65 63 63 64 65 57 56 56 54 55 54 55 54 54 56 67
62 60 61 61 59 59 60 58 58 60 61 62 57 57 59 56 62 60 58 58 59 61 69 66 59 63 64 62 63 63 63 58 57 55 54 54 54 54 55 55 55 59
61 61 60 61 60 60 59 59 60 60 60 60 58 59 59 58 59 60 58 59 59 60 61 61 61 60 64 62 62 62 65 60 56 56 55 53 53 55 55 54 55 52
MSLP
1020.67 1020.83 1021.07 1021.27 1021.47 1021.55 1021.67 1021.67 1021.71 1021.67 1021.55 1021.43 1021.43 1021.35 1021.31 1021.23 1021.11 1021.07 1021.07 1020.99 1020.87 1020.83 1020.71 1020.71 1020.75 1020.63 1020.55 1020.47 1020.39 1020.31 1020.27 1020.15 1019.95 1019.91 1019.91 1019.79 1019.71 1019.59 1019.51 1019.43 1019.35 1019.31
1020.83 1020.95 1021.11 1021.35 1021.55 1021.63 1021.71 1021.63 1021.63 1021.55 1021.51 1021.43 1021.39 1021.31 1021.31 1021.31 1021.31 1021.23 1021.23 1021.23 1021.11 1021.03 1020.91 1020.79 1020.75 1020.79 1020.63 1020.51 1020.47 1020.43 1020.35 1020.27 1020.19 1019.99 1019.99 1019.87 1019.75 1019.67 1019.63 1019.59 1019.55 1019.39
1020.99 1021.19 1021.31 1021.47 1021.63 1021.71 1021.67 1021.63 1021.63 1021.63 1021.55 1021.47 1021.39 1021.43 1021.47 1021.43 1021.39 1021.31 1021.27 1021.27 1021.31 1021.19 1021.03 1020.95 1020.87 1020.83 1020.75 1020.55 1020.47 1020.51 1020.43 1020.35 1020.31 1020.19 1020.03 1019.95 1019.79 1019.79 1019.75 1019.67 1019.59 1019.51
1021.15 1021.23 1021.39 1021.55 1021.63 1021.71 1021.67 1021.67 1021.67 1021.63 1021.55 1021.51 1021.59 1021.55 1021.55 1021.51 1021.43 1021.39 1021.31 1021.27 1021.39 1021.39 1021.23 1021.07 1020.99 1020.91 1020.83 1020.63 1020.51 1020.43 1020.51 1020.43 1020.39 1020.23 1020.11 1020.03 1019.95 1019.87 1019.83 1019.75 1019.71 1019.67
1021.23 1021.35 1021.47 1021.63 1021.71 1021.75 1021.75 1021.79 1021.79 1021.75 1021.67 1021.59 1021.59 1021.59 1021.55 1021.59 1021.59 1021.51 1021.47 1021.43 1021.47 1021.55 1021.47 1021.31 1021.15 1021.11 1020.99 1020.79 1020.67 1020.51 1020.43 1020.47 1020.39 1020.35 1020.23 1020.23 1020.15 1020.03 1019.95 1019.83 1019.87 1019.87
1021.31 1021.39 1021.51 1021.63 1021.79 1021.83 1021.91 1021.87 1021.87 1021.79 1021.67 1021.67 1021.75 1021.75 1021.79 1021.75 1021.75 1021.71 1021.67 1021.67 1021.67 1021.63 1021.63 1021.51 1021.39 1021.31 1021.19 1021.11 1020.95 1020.79 1020.67 1020.63 1020.51 1020.35 1020.39 1020.47 1020.39 1020.27 1020.23 1020.19 1020.07 1020.07
1021.43 1021.47 1021.67 1021.75 1021.87 1021.95 1021.99 1021.95 1021.87 1021.83 1021.87 1021.91 1021.87 1021.95 1021.95 1021.95 1021.95 1021.87 1021.79 1021.75 1021.71 1021.75 1021.71 1021.67 1021.63 1021.55 1021.39 1021.23 1021.15 1021.03 1020.83 1020.71 1020.63 1020.51 1020.59 1020.75 1020.63 1020.59 1020.51 1020.43 1020.35 1020.27
1021.59 1021.63 1021.75 1021.87 1021.99 1021.99 1021.99 1021.91 1021.91 1021.91 1021.83 1021.79 1021.87 1021.95 1021.95 1022.07 1022.07 1021.95 1021.87 1021.79 1021.79 1021.79 1021.75 1021.71 1021.71 1021.67 1021.55 1021.43 1021.39 1021.35 1021.15 1020.95 1020.87 1020.75 1020.79 1020.87 1020.83 1020.83 1020.71 1020.59 1020.51 1020.39
1021.63 1021.79 1021.87 1021.95 1022.03 1022.07 1022.07 1022.03 1021.95 1021.95 1021.95 1022.11 1022.23 1022.23 1022.07 1022.03 1022.07 1022.03 1021.95 1021.87 1021.83 1021.83 1021.79 1021.79 1021.83 1021.75 1021.71 1021.59 1021.59 1021.55 1021.47 1021.31 1021.15 1021.03 1020.99 1020.95 1020.99 1020.91 1020.79 1020.67 1020.59 1020.51
1021.79 1021.95 1022.07 1022.11 1022.15 1022.19 1022.19 1022.07 1022.03 1022.11 1022.15 1022.19 1022.15 1022.11 1022.11 1022.03 1022.03 1022.07 1021.99 1021.95 1021.95 1021.95 1021.87 1021.83 1021.83 1021.83 1021.75 1021.71 1021.67 1021.63 1021.59 1021.47 1021.27 1021.15 1021.11 1021.07 1021.03 1020.91 1020.83 1020.75 1020.75 1020.67
1021.95 1022.11 1022.23 1022.27 1022.27 1022.39 1022.35 1022.27 1022.31 1022.39 1022.27 1022.19 1022.11 1022.23 1022.39 1022.43 1022.31 1022.15 1022.11 1022.03 1022.03 1022.07 1022.07 1021.95 1021.83 1021.83 1021.79 1021.79 1021.75 1021.67 1021.63 1021.55 1021.43 1021.35 1021.23 1021.15 1021.07 1020.95 1020.83 1020.79 1020.79 1020.79
1021.99 1022.15 1022.31 1022.39 1022.47 1022.43 1022.35 1022.31 1022.35 1022.43 1022.43 1022.39 1022.31 1022.31 1022.35 1022.39 1022.39 1022.35 1022.27 1022.19 1022.15 1022.11 1022.07 1022.03 1021.95 1021.79 1021.83 1021.87 1021.83 1021.75 1021.63 1021.59 1021.51 1021.43 1021.39 1021.27 1021.23 1021.11 1021.03 1020.95 1020.91 1020.87
1022.11 1022.15 1022.27 1022.35 1022.39 1022.47 1022.39 1022.39 1022.39 1022.35 1022.39 1022.43 1022.35 1022.27 1022.27 1022.31 1022.35 1022.27 1022.31 1022.31 1022.23 1022.11 1022.07 1022.03 1021.95 1021.83 1021.79 1021.75 1021.79 1021.79 1021.75 1021.67 1021.59 1021.55 1021.51 1021.35 1021.31 1021.23 1021.15 1021.07 1020.99 1020.87
1022.11 1022.19 1022.23 1022.31 1022.27 1022.27 1022.35 1022.47 1022.43 1022.47 1022.55 1022.47 1022.35 1022.31 1022.31 1022.31 1022.31 1022.27 1022.27 1022.31 1022.23 1022.11 1022.07 1022.03 1021.95 1021.87 1021.79 1021.79 1021.75 1021.79 1021.75 1021.75 1021.71 1021.63 1021.59 1021.43 1021.23 1021.15 1021.15 1021.11 1020.95 1020.79
1022.11 1022.15 1022.19 1022.23 1022.23 1022.27 1022.27 1022.31 1022.31 1022.31 1022.47 1022.55 1022.47 1022.39 1022.31 1022.23 1022.19 1022.15 1022.23 1022.35 1022.27 1022.19 1022.07 1021.99 1021.99 1021.87 1021.79 1021.75 1021.71 1021.75 1021.79 1021.79 1021.75 1021.67 1021.63 1021.55 1021.27 1021.19 1021.11 1021.11 1020.95 1020.83
1022.23 1022.07 1022.15 1022.23 1022.27 1022.31 1022.35 1022.35 1022.31 1022.27 1022.31 1022.35 1022.27 1022.27 1022.27 1022.11 1022.07 1022.15 1022.19 1022.19 1022.23 1022.15 1022.07 1021.99 1021.99 1021.87 1021.63 1021.55 1021.55 1021.63 1021.79 1021.79 1021.71 1021.67 1021.63 1021.63 1021.43 1021.31 1021.23 1021.07 1021.07 1020.99
1022.11 1022.11 1022.15 1022.31 1022.43 1022.47 1022.47 1022.35 1022.35 1022.47 1022.43 1022.39 1022.39 1022.39 1022.27 1022.15 1022.11 1022.11 1022.11 1022.15 1022.15 1022.07 1021.99 1022.03 1021.91 1021.79 1021.59 1021.67 1021.59 1021.47 1021.55 1021.67 1021.71 1021.63 1021.55 1021.55 1021.55 1021.35 1021.31 1021.19 1021.11 1021.07
1022.07 1022.07 1022.23 1022.39 1022.43 1022.47 1022.47 1022.43 1022.39 1022.51 1022.55 1022.55 1022.51 1022.43 1022.23 1022.11 1022.11 1022.07 1022.03 1021.95 1021.87 1021.95 1021.95 1021.87 1021.87 1021.67 1021.67 1021.63 1021.55 1021.51 1021.43 1021.59 1021.67 1021.63 1021.55 1021.47 1021.51 1021.35 1021.35 1021.27 1021.19 1021.11
1022.03 1022.15 1022.27 1022.47 1022.47 1022.47 1022.47 1022.47 1022.47 1022.51 1022.59 1022.55 1022.55 1022.39 1022.27 1022.19 1022.11 1022.03 1021.99 1021.87 1021.87 1021.83 1021.87 1021.79 1021.79 1021.59 1021.59 1021.55 1021.51 1021.43 1021.39 1021.39 1021.55 1021.59 1021.51 1021.39 1021.47 1021.39 1021.39 1021.31 1021.23 1021.15
1022.07 1022.27 1022.35 1022.39 1022.39 1022.39 1022.39 1022.39 1022.47 1022.55 1022.55 1022.51 1022.43 1022.39 1022.27 1022.19 1022.11 1022.07 1021.95 1021.95 1021.83 1021.79 1021.75 1021.67 1021.67 1021.51 1021.47 1021.47 1021.43 1021.35 1021.31 1021.31 1021.39 1021.43 1021.43 1021.35 1021.39 1021.47 1021.43 1021.35 1021.27 1021.19
1022.11 1022.39 1022.35 1022.39 1022.35 1022.31 1022.35 1022.43 1022.55 1022.63 1022.55 1022.43 1022.39 1022.35 1022.31 1022.23 1022.11 1022.03 1021.87 1021.79 1021.71 1021.63 1021.67 1021.59 1021.51 1021.31 1021.35 1021.35 1021.31 1021.27 1021.27 1021.27 1021.35 1021.31 1021.39 1021.39 1021.35 1021.47 1021.51 1021.35 1021.31 1021.27
1022.07 1022.35 1022.23 1022.31 1022.35 1022.39 1022.47 1022.51 1022.59 1022.51 1022.51 1022.35 1022.31 1022.23 1022.15 1022.11 1022.03 1021.91 1021.87 1021.79 1021.67 1021.55 1021.55 1021.55 1021.35 1021.19 1021.19 1021.19 1021.23 1021.23 1021.19 1021.27 1021.35 1021.31 1021.39 1021.39 1021.39 1021.51 1021.47 1021.43 1021.35 1021.31
1022.03 1022.23 1022.15 1022.31 1022.35 1022.47 1022.47 1022.51 1022.59 1022.51 1022.43 1022.19 1022.19 1022.11 1022.03 1022.03 1021.87 1021.79 1021.71 1021.67 1021.55 1021.43 1021.39 1021.39 1021.23 1021.07 1021.03 1021.07 1021.11 1021.15 1021.23 1021.31 1021.39 1021.35 1021.39 1021.39 1021.51 1021.55 1021.47 1021.39 1021.35 1021.31
1021.79 1021.95 1022.11 1022.27 1022.39 1022.39 1022.31 1022.27 1022.31 1022.31 1022.15 1021.95 1022.07 1022.07 1022.03 1021.83 1021.67 1021.63 1021.55 1021.47 1021.39 1021.31 1021.23 1021.23 1021.07 1020.83 1020.83 1020.91 1020.99 1021.07 1021.11 1021.27 1021.39 1021.39 1021.47 1021.47 1021.55 1021.59 1021.55 1021.47 1021.35 1021.11
1021.51 1021.75 1021.91 1022.07 1022.19 1022.15 1022.07 1022.11 1022.15 1022.11 1021.91 1021.83 1021.87 1021.87 1021.79 1021.63 1021.55 1021.55 1021.51 1021.39 1021.27 1021.23 1021.03 1020.91 1020.95 1020.75 1020.63 1020.75 1020.83 1020.95 1021.03 1021.15 1021.31 1021.43 1021.51 1021.51 1021.59 1021.59 1021.55 1021.43 1021.27 1021.15
1021.39 1021.55 1021.75 1021.83 1021.91 1021.87 1021.83 1021.91 1021.91 1021.95 1021.83 1021.83 1021.79 1021.75 1021.71 1021.63 1021.59 1021.55 1021.55 1021.39 1021.19 1021.11 1020.99 1020.87 1020.87 1020.71 1020.55 1020.59 1020.71 1020.79 1020.87 1021.03 1021.23 1021.35 1021.47 1021.51 1021.59 1021.59 1021.51 1021.43 1021.35 1021.23
Wind_Speed
7 7 7 7 6 5 5 4 3 3 1 0 2 3 4 2 4 5 4 3 3 3 4 4 4 4 3 3 3 4 4 4 5 5 6 6 5 6 7 7 7 6
7 7 7 6 6 4 3 3 3 2 1 3 4 5 4 4 4 4 4 4 3 4 4 4 4 4 3 3 3 4 3 3 4 3 5 4 3 4 5 6 6 6
7 6 7 7 6 4 4 3 3 2 3 4 5 5 4 3 3 3 3 4 4 4 3 3 4 3 3 2 2 3 3 3 3 3 3 3 3 4 4 5 5 6
6 6 6 6 5 4 3 3 3 3 3 5 4 4 4 3 3 4 4 4 4 4 4 4 4 4 3 3 3 3 2 2 1 2 3 3 3 4 4 4 5 5
7 6 6 5 4 4 3 3 3 3 3 2 4 4 4 4 4 4 3 4 4 4 4 5 5 4 4 4 3 3 3 3 2 2 2 3 3 3 3 5 6 7
5 5 5 6 5 4 3 3 3 4 3 3 4 4 4 3 3 3 4 4 4 5 5 5 6 6 6 6 5 5 5 5 2 1 2 4 4 4 4 5 6 6
6 6 7 6 5 3 3 2 3 3 2 1 2 3 2 3 3 3 3 3 4 4 4 4 5 6 6 6 6 7 7 5 3 3 4 4 4 5 4 4 5 4
5 5 6 5 5 4 4 3 3 3 1 1 2 2 5 3 3 2 3 4 4 4 4 5 5 5 5 6 6 7 7 6 7 6 5 4 4 4 4 3 3 4
7 6 5 5 4 4 4 3 2 2 1 3 3 3 3 4 3 3 3 4 4 4 4 5 4 4 4 5 5 5 6 6 6 5 5 5 4 3 3 3 4 3
7 7 6 5 4 4 4 3 2 0 1 2 1 1 4 4 4 3 3 4 4 4 4 4 4 4 4 4 5 5 5 6 6 6 5 4 3 2 2 3 3 3
6 6 5 4 4 2 3 1 0 1 1 0 2 3 3 1 1 2 3 3 4 3 3 3 4 4 4 5 5 4 4 5 5 4 4 4 2 1 2 2 3 3
4 4 4 4 4 3 4 3 3 3 1 3 3 5 4 3 2 0 1 3 3 3 3 2 2 4 4 3 3 4 5 5 4 4 3 3 3 3 3 3 4 4
3 3 3 4 4 4 2 2 1 1 3 2 2 4 4 4 3 3 2 2 1 2 2 1 1 2 4 4 4 4 4 4 4 4 3 3 2 3 3 4 4 3
3 2 1 2 3 4 4 4 4 3 3 2 3 4 3 3 3 3 3 2 1 1 1 0 1 2 2 2 3 3 4 4 3 3 3 2 3 3 3 3 2 2
4 3 2 3 4 4 3 2 1 0 2 2 2 3 2 2 2 3 4 3 1 1 1 0 1 1 0 1 2 3 3 3 3 3 3 2 2 2 3 3 2 2
4 4 4 3 2 3 2 1 1 2 2 1 3 2 0 1 2 2 3 4 4 3 2 1 2 2 0 3 2 2 2 2 2 3 2 2 1 2 3 3 3 3
4 4 4 2 0 1 2 2 2 0 1 3 2 1 1 1 2 1 1 1 4 3 3 3 2 2 2 1 2 3 2 2 2 2 2 1 2 1 1 3 3 3
4 4 3 1 1 3 3 3 3 1 0 1 1 1 1 0 0 1 1 2 1 2 2 3 3 3 1 2 3 3 3 2 1 2 2 2 2 1 1 2 2 2
4 4 4 2 3 4 3 2 2 0 1 3 3 3 1 1 1 2 2 3 3 2 0 2 3 4 4 4 4 2 4 3 2 1 3 2 3 1 0 2 1 2
5 4 4 4 4 4 1 2 3 1 2 3 2 1 1 1 1 1 2 2 3 4 1 2 4 6 6 5 5 4 4 3 2 2 3 2 2 1 1 2 1 1
5 4 5 4 4 3 3 4 2 1 3 3 3 2 2 3 3 3 3 3 3 3 2 3 4 8 6 7 5 4 4 3 2 2 3 3 1 1 1 2 1 0
7 5 5 4 4 4 4 4 2 4 4 3 2 1 0 2 2 2 3 4 4 3 2 3 5 7 7 7 6 5 5 1 2 3 3 3 1 2 1 1 1 0
6 6 5 5 4 4 4 4 3 4 4 3 2 1 0 1 2 2 3 3 4 3 3 4 4 6 8 7 7 6 3 2 1 2 3 2 3 2 2 1 1 0
5 6 6 5 5 5 6 5 4 4 4 3 3 3 2 2 2 3 3 2 2 4 3 4 5 6 9 8 8 6 6 3 1 0 2 1 2 1 1 1 2 3
5 5 6 6 6 6 5 4 4 5 3 2 3 3 3 2 2 2 3 3 3 3 7 5 3 5 7 9 9 8 4 3 2 0 1 1 3 2 1 0 0 2
4 4 4 5 6 5 4 3 4 3 4 4 4 3 4 3 3 3 4 4 4 3 4 4 4 5 4 8 9 8 7 3 3 1 1 2 3 3 3 2 1 1
Wind_Direction
98 97 97 94 95 103 114 106 103 108 152 228 18 8 54 65 77 79 75 56 39 33 32 58 64 53 34 29 28 43 30 29 38 44 42 33 24 28 24 17 20 21
99 99 98 95 95 95 105 124 130 127 37 25 54 74 73 77 56 62 64 56 25 8 4 21 47 60 39 25 21 49 38 26 31 41 61 42 23 34 29 21 21 21
106 105 107 106 109 109 112 98 90 63 39 37 65 69 78 73 67 45 58 74 49 19 2 352 8 32 46 19 17 54 41 38 30 22 61 49 30 41 26 27 37 40
102 105 110 111 109 109 93 73 42 39 36 55 70 77 90 114 103 78 57 46 52 39 14 3 353 0 14 12 10 38 78 27 357 27 46 17 22 35 27 39 37 37
118 114 107 103 102 101 86 72 49 41 60 74 79 89 92 80 67 67 61 32 41 45 31 15 7 8 354 351 0 11 38 62 3 23 30 24 1 27 21 40 36 32
96 95 94 98 105 107 105 96 69 88 106 74 60 64 72 70 69 63 52 49 43 48 42 25 19 16 14 3 357 358 350 23 357 29 27 29 17 15 26 32 42 34
109 105 97 95 91 93 79 53 51 81 94 132 73 69 86 83 72 69 70 68 58 56 48 38 31 25 17 18 21 18 6 7 18 34 33 22 39 29 23 38 37 35
97 99 101 98 100 95 90 85 95 103 118 85 83 110 120 115 99 79 73 66 66 56 53 42 37 33 25 29 24 19 15 10 12 18 43 56 51 36 16 24 35 33
105 111 113 112 116 120 122 137 130 102 53 77 68 76 116 130 139 120 99 83 68 62 59 52 41 35 32 35 27 25 18 12 14 19 40 70 70 48 18 5 22 12
107 122 123 138 142 159 159 179 174 292 351 356 346 114 130 162 143 139 105 86 74 59 64 67 48 37 38 35 30 25 21 19 21 30 45 69 94 80 37 23 12 11
112 124 135 146 157 175 180 162 23 0 314 324 28 25 7 16 82 123 97 80 80 75 60 63 79 64 48 34 25 20 28 30 29 34 46 63 68 53 32 21 22 30
127 120 132 148 158 182 189 182 205 205 127 81 92 79 84 112 109 42 115 108 92 84 80 45 56 85 77 56 35 25 27 25 25 28 29 52 25 9 355 352 8 13
108 124 145 164 159 159 139 116 158 52 77 72 71 96 79 61 72 105 124 147 149 103 79 64 37 66 73 61 45 39 32 24 14 16 7 41 40 12 11 25 28 23
176 162 143 167 133 113 124 156 172 164 147 135 97 92 96 82 76 95 122 137 201 151 169 70 12 65 72 62 69 57 39 25 15 5 358 19 28 24 28 33 22 13
157 159 180 141 115 116 115 120 119 13 93 122 136 154 160 140 121 106 114 143 203 212 201 276 324 311 151 119 74 61 60 37 14 4 353 341 31 355 26 34 4 355
182 154 127 104 123 136 185 208 296 323 27 101 112 106 135 105 68 102 128 156 178 211 226 230 273 277 344 50 66 110 95 66 28 10 354 317 342 6 355 12 29 11
152 132 129 160 79 171 246 232 256 164 153 186 193 201 209 111 85 24 343 165 160 193 211 221 240 258 67 348 25 29 95 67 31 2 329 333 288 67 349 358 23 17
157 144 158 158 117 217 209 223 254 89 157 196 243 233 246 37 57 295 306 304 328 130 184 199 217 221 161 289 323 5 10 90 61 9 329 285 271 224 290 12 26 3
155 152 172 186 201 201 205 240 256 221 168 190 215 235 219 159 279 319 286 263 284 297 177 214 221 221 203 248 289 332 346 22 72 6 336 303 269 244 60 55 31 2
164 169 172 192 217 217 208 273 266 306 246 208 223 268 227 257 269 235 272 263 257 264 243 216 220 234 211 235 253 287 319 349 21 9 343 312 241 234 132 89 69 3
163 176 186 201 216 224 227 249 254 204 214 188 190 198 224 259 263 292 295 281 265 252 215 223 227 228 210 225 240 270 297 335 21 356 9 348 207 130 171 123 84 26
164 190 188 203 208 225 230 246 223 192 199 218 205 215 231 279 297 274 268 273 269 259 268 248 249 240 215 218 230 241 271 356 359 350 17 348 100 145 143 160 143 107
172 181 189 204 216 215 230 238 222 223 233 217 173 264 273 278 274 257 265 266 278 285 272 265 260 246 225 214 219 231 248 305 338 357 25 16 130 179 182 184 179 126
174 173 187 201 205 219 222 230 221 220 213 209 189 212 236 252 266 297 303 283 272 285 256 253 269 256 232 213 213 218 220 224 241 36 43 89 147 205 245 253 248 163
180 161 181 195 201 216 213 204 207 211 219 203 203 199 226 248 281 285 295 296 287 269 289 294 271 279 251 213 209 213 223 206 198 115 78 180 171 185 272 298 339 339
182 177 179 188 206 225 236 225 211 212 220 214 234 219 249 274 280 272 271 283 289 306 298 288 286 289 264 213 207 212 216 203 167 144 176 194 204 193 195 255 262 293